Weather History for Monterey, CA

Change the Weather History Date:

Sunday, September 1, 2013

  Actual Average Record
Temperature  
Mean Temperature 66 °F 62 °F  
Max Temperature 74 °F 70 °F 80 °F (2010)
Min Temperature 58 °F 54 °F 47 °F (2008)
Degree Days  
Heating Degree Days 0    
Month to date heating degree days 0  
Since 1 July heating degree days 186  
Cooling Degree Days 1    
Month to date cooling degree days 1  
Year to date cooling degree days 27  
Growing Degree Days 16 (Base 50)    
Moisture  
Dew Point 57 °F    
Average Humidity 70    
Maximum Humidity 87    
Minimum Humidity 53    
Precipitation  
Precipitation 0.00 in - 0.00 in (2014)
Month to date precipitation 0.00  
Year to date precipitation 3.25  
Since 1 July precipitation 0.10  
Sea Level Pressure  
Sea Level Pressure 29.97 in    
Wind  
Wind Speed 5 mph (WSW)    
Max Wind Speed 14 mph    
Max Gust Speed 16 mph    
Visibility 10 miles    
Events      
T = Trace of Precipitation, MM = Missing Value Source: NWS Daily Summary

Daily Weather History Graph

Daily Weather History Graph

Search for Another Location

Airport:

Trip Planner

Search our weather history database for the weather conditions in past years. The results will help you decide how hot, cold, wet, or windy it might be!

Date:

Astronomy

Sep. 01, 2013 Rise Set
Actual Time 6:38 AM PDT 7:34 PM PDT
Civil Twilight 6:12 AM PDT 8:01 PM PDT
Nautical Twilight 5:41 AM PDT 8:32 PM PDT
Astronomical Twilight 5:08 AM PDT 9:04 PM PDT
Moon 3:09 AM PDT (9/1) 5:12 PM PDT (9/1)
Length of Visible Light 13h 48m
Length of Day
12h 56m
Waning Crescent, 13% of the Moon is Illuminated
Sep 1
Waning Crescent
Sep 5
New
Sep 12
First Quarter
Sep 19
Full
Sep 26
Last Quarter

Hourly Weather History & Observations

Time (PDT) Temp. Dew Point Humidity Pressure Visibility Wind Dir Wind Speed Gust Speed Precip Events Conditions
12:54 AM 62.1 °F 55.9 °F 80% 29.99 in 10.0 mi Calm Calm - N/A   Scattered Clouds
1:54 AM 60.1 °F 55.0 °F 83% 29.98 in 10.0 mi SW 5.8 mph - N/A   Clear
2:54 AM 61.0 °F 55.0 °F 81% 29.97 in 10.0 mi Calm Calm - N/A   Clear
3:54 AM 60.1 °F 55.0 °F 83% 29.96 in 10.0 mi Calm Calm - N/A   Clear
4:54 AM 60.1 °F 55.0 °F 83% 29.96 in 10.0 mi Calm Calm - N/A   Clear
5:54 AM 59.0 °F 55.0 °F 87% 29.96 in 10.0 mi Calm Calm - N/A   Clear
6:54 AM 59.0 °F 54.0 °F 83% 29.98 in 10.0 mi Calm Calm - N/A   Clear
7:54 AM 61.0 °F 55.9 °F 83% 29.99 in 10.0 mi Calm Calm - N/A   Scattered Clouds
8:54 AM 62.1 °F 55.9 °F 80% 29.99 in 10.0 mi Calm Calm - N/A   Mostly Cloudy
9:54 AM 64.9 °F 57.0 °F 75% 29.99 in 10.0 mi West 4.6 mph - N/A   Mostly Cloudy
10:54 AM 66.9 °F 57.0 °F 70% 29.99 in 10.0 mi NW 8.1 mph - N/A   Clear
11:54 AM 66.9 °F 57.0 °F 70% 29.99 in 10.0 mi West 10.4 mph - N/A   Scattered Clouds
12:54 PM 68.0 °F 57.9 °F 70% 29.98 in 10.0 mi NW 8.1 mph - N/A   Clear
1:54 PM 70.0 °F 57.9 °F 65% 29.97 in 10.0 mi WNW 9.2 mph - N/A   Clear
2:54 PM 72.0 °F 55.9 °F 57% 29.96 in 10.0 mi WNW 10.4 mph - N/A   Clear
3:54 PM 72.0 °F 55.0 °F 55% 29.96 in 10.0 mi WNW 8.1 mph - N/A   Clear
4:54 PM 73.0 °F 55.0 °F 53% 29.96 in 10.0 mi WNW 5.8 mph - N/A   Partly Cloudy
5:05 PM 71.6 °F 55.4 °F 57% 29.92 in 10.0 mi WSW 8.1 mph - N/A   Mostly Cloudy
5:54 PM 70.0 °F 59.0 °F 68% 29.96 in 10.0 mi WSW 10.4 mph - N/A   Overcast
6:54 PM 66.9 °F 60.1 °F 79% 29.97 in 10.0 mi WSW 6.9 mph - N/A   Mostly Cloudy
7:54 PM 66.9 °F 60.1 °F 79% 29.97 in 10.0 mi South 3.5 mph - N/A   Overcast
8:19 PM 66.2 °F 60.8 °F 83% 29.94 in 10.0 mi SW 5.8 mph - N/A   Overcast
8:54 PM 66.9 °F 61.0 °F 81% 29.98 in 10.0 mi SSW 5.8 mph - N/A   Overcast
9:35 PM 66.2 °F 60.8 °F 83% 29.95 in 10.0 mi South 9.2 mph - N/A   Overcast
9:54 PM 66.9 °F 61.0 °F 81% 29.98 in 10.0 mi South 5.8 mph - N/A   Mostly Cloudy
10:54 PM 66.9 °F 60.1 °F 79% 29.98 in 10.0 mi South 4.6 mph - N/A   Clear
11:54 PM 66.9 °F 60.1 °F 79% 29.97 in 10.0 mi Calm Calm - N/A   Clear